Flag Weather past 2 weeks in Niigata, Japan

Now
59 °F

Cool.


Feels Like: 59 °F
Forecast: 58 / 66 °F
Wind: 2 mph from South

Location: Niigata

Current Time: Nov 1, 2014 at 3:03:21 AM

Latest Report: Nov 1, 2014 at 2:00 AM


Visibility: N/A

Pressure: 30.11 "Hg

Humidity: 84%

Dew point: 54 °F

Location of NiigataLocation

Historic Weather in Niigata — Graph

°F

Niigata temperature yesterday

Maximum temperature yesterday: 68 °F (at 1:00 PM)
Minimum temperature yesterday: 49 °F (at 4:00 AM)
Average temperature yesterday: 59 °F

Past Weeks' High & Low Weather Summary

 TemperatureHumidityPressure
High77 °F (Oct 26, 1:00 PM)95% (Oct 23, 2:00 AM)30.39 "Hg (Oct 23, 2:00 AM)
Low45 °F (Oct 30, 6:00 AM)32% (Oct 19, 1:00 PM)29.88 "Hg (Oct 27, 6:00 AM)
Average58 °F70%30.16 "Hg
* Reported Oct 17 1:00 AM — Nov 1 1:00 AM, Niigata, Weather by CustomWeather, © 2014

Note: Actual official high and low records may vary slightly from our data, if they occured in-between our weather recording intervals... More about our weather records

Advertising

Niigata weather history for previous 24 hours

 ConditionsComfort  
Time TempWeatherWind HumidityBarometerVisibility
1:00 AM
Nov 1
58 °FCool.2 mph88%30.12 "HgN/A
12:00 AM59 °FCool.2 mph88%30.14 "HgN/A
11:00 PM
Oct 31
60 °FCool.2 mph78%30.14 "HgN/A
10:00 PM60 °FCool.2 mph85%30.16 "HgN/A
9:00 PM60 °FOvercast.1 mph85%30.17 "Hg9 mi
8:00 PM61 °FCool.1 mph82%30.18 "HgN/A
7:00 PM63 °FMild.2 mph82%30.17 "HgN/A
6:00 PM63 °FOvercast.3 mph78%30.17 "Hg9 mi
5:00 PM64 °FMild.3 mph76%30.17 "HgN/A
4:00 PM65 °FMild.3 mph70%30.17 "HgN/A
3:00 PM66 °FOvercast.3 mph64%30.16 "Hg9 mi
2:00 PM67 °FMild.5 mph62%30.16 "HgN/A
1:00 PM68 °FMild.1 mph50%30.18 "HgN/A
12:00 PM67 °FOvercast.2 mph53%30.20 "Hg9 mi
11:00 AM66 °FMild.1 mph56%30.24 "HgN/A
10:00 AM62 °FCool.2 mph62%30.26 "HgN/A
9:00 AM58 °FOvercast.5 mph66%30.27 "Hg12 mi
8:00 AM53 °FCool.2 mph73%30.27 "HgN/A
7:00 AM51 °FCool.1 mph79%30.27 "HgN/A
6:00 AM49 °FPassing clouds.5 mph86%30.26 "Hg9 mi
5:00 AM50 °FCool.3 mph85%30.26 "HgN/A
4:00 AM49 °FCool.2 mph88%30.26 "HgN/A
3:00 AM51 °FClear.2 mph88%30.27 "Hg9 mi
Weather by CustomWeather, © 2014

See weather overviewHow to use our weather pages